Location: Fort Worth, Tx
(32.7431°N, 97.3695°W)
Time: 05:39:06
(UTC-05:00)

A-11 Canister half - Visible Passes

Search period start: 28 January 2023 00:00
Search period end: 07 February 2023 00:00
Orbit: 1514 x 1685 km, 47.2° (Epoch: 26 January)

Date Brightness Start Highest point End Pass type
(mag) Time Alt. Az. Time Alt. Az. Time Alt. Az.
28 Jan 8.9 19:49:08 10° NW 19:58:22 68° NNE 20:07:36 10° ESE visible
28 Jan 9.9 21:54:34 10° WNW 22:02:51 38° SW 22:06:25 29° S visible
29 Jan 9.0 19:26:11 10° NW 19:35:25 64° NNE 19:44:36 10° ESE visible
29 Jan 9.8 21:31:32 10° WNW 21:39:58 42° SW 21:46:14 19° S visible
30 Jan 9.8 21:08:32 10° WNW 21:17:06 45° SW 21:25:44 10° SSE visible
31 Jan 9.7 20:45:31 10° WNW 20:54:13 48° SW 21:02:59 10° SSE visible
01 Feb 9.7 20:22:31 10° WNW 20:31:21 52° SW 20:40:12 10° SSE visible
02 Feb 9.6 19:59:31 10° WNW 20:08:28 56° SW 20:17:24 10° SSE visible
02 Feb 11.4 22:11:01 10° WSW 22:11:57 10° WSW 22:12:52 10° SW visible
03 Feb 9.6 19:36:32 10° WNW 19:45:34 60° SW 19:54:35 10° SSE visible
03 Feb 11.3 21:46:13 10° WSW 21:49:06 12° WSW 21:51:59 10° SW visible
04 Feb 11.3 21:22:22 10° W 21:26:16 13° WSW 21:30:11 10° SSW visible
05 Feb 11.3 20:58:46 10° W 21:03:26 15° WSW 21:08:06 10° SSW visible
06 Feb 11.3 20:35:18 10° W 20:40:35 17° SW 20:45:53 10° SSW visible
